Location: *
(44.1392°N, 4.8079°E)
Time: 06:26:57
(UTC+00:00)

USA 290 - Pass Details

Date: 21 June 2021
Orbit: 401 x 412 km, 73.6° (Epoch: 10 July)

Event Time Altitude Azimuth Distance (km) Brightness Sun altitude
Exits shadow 01:55:15 26° 265° (W) 837 3.4 -15.9°
Maximum altitude 01:56:07 31° 297° (WNW) 744 3.4 -15.8°
Drops below altitude 10° 01:59:02 10° 2° (N) 1,470 5.9 -15.6°
Sets 02:01:14 0° 13° (NNE) 2,333 7.4 -15.3°
